Title: 2MASSJ035523.51+113337.4: A Young, Dusty, Nearby, Isolated Brown Dwarf Resembling A Giant Exoplanet Authors: Jacqueline K. Faherty (Universidad de Chile, Cerro Calan, AMNH), Emily L. Rice (College of Staten Island, CUNY, AMNH), Kelle L. Cruz (Hunter College, CUNY, AMNH), Eric E. Mama...
Ultraviolet Light: At the End of the Rainbow - 1946 Educational Documentary Educational documentary sponsored by the Sun-Kraft Corporation that explains the history, physics and health-giving properties of ultra violet light. Being...
William Thomson, 1st Baron Kelvin OM, GCVO, PC, PRS, PRSE, (26 June 1824 - 17 December 1907) was a mathematical physicist and engineer. At the University of Glasgow he did important work in the mathematical analysis of electricity and formulation of the first and second laws of thermodynamics, and...
Robert Coleman Richardson (born June 26, 1937 in Washington D.C.) is an American experimental physicist whose area of research includes sub-millikelvin temperature studies of helium-3. Richardson, along with David Lee, as senior researchers, and then graduate student Douglas Osheroff, sha...
Georg Brandt (26 June 1694 - 29 April 1768) was a Swedish chemist and mineralogist who discovered cobalt (c.1735). He was the first person to discover a metal unknown in ancient times Read more
UCLA-led research team develops world's most powerful nanoscale microwave oscillators A team of UCLA researchers has created the most powerful high-performance nanoscale microwave oscillators in the world, a development that could lead to cheaper, more energy-efficient mobile communica...
Title: ExELS: an exoplanet legacy science proposal for the ESA Euclid mission I. Cold exoplanets Authors: M.T. Penny, E. Kerins, N. Rattenbury, J.-P. Beaulieu, A.C. Robin, S. Mao, V. Batista, S. Calchi Novati, A. Cassan, P. Fouque, I. McDonald, J.B. Marquette, P. Tisserand, M.R. Zapatero Osorio...
Purdue University engineers are conducting research to help NASA develop rockets faster and less expensively for future missions to Mars and the moon.
The NASA-funded research at Purdue focuses on liquid-fuelled rockets. Specifically, the work deals with understanding how fuel and a compon...
Orbital elements:
2012 MG7 Earth MOID = 0.1958 AU
Epoch 2012 Mar. 14.0 TT = JDT 2456000.5 MPC
M 337.27720 (2000.0) P Q
n 0.50553996 Peri. 312.07837 -0.62109935 +0.74857400
a 1.5606268 Node 278.01230 -0.63191767 -0.65350240
e 0.2553694 Incl. 13.55583 -0.46358996 -0.11212303
P 1.95 H 20.9...
Orbital elements:
2012 ME7 Earth MOID = 0.2082 AU
Epoch 2012 Mar. 14.0 TT = JDT 2456000.5 MPC
M 313.98615 (2000.0) P Q
n 0.27251121 Peri. 71.47686 +0.92496118 +0.32640353
a 2.3562053 Node 269.10353 -0.37823098 +0.84076599
e 0.5255367 Incl. 11.22851 +0.03725773 +0.43194131
P 3.62 H 21.4 G...
Orbital elements:
2012 MC7 Earth MOID = 0.2451 AU
Epoch 2012 Mar. 14.0 TT = JDT 2456000.5 MPC
M 342.78320 (2000.0) P Q
n 0.26131493 Peri. 113.99205 -0.59135866 +0.66576584
a 2.4230362 Node 111.57955 -0.79359375 -0.58065848
e 0.5648295 Incl. 29.29631 +0.14319182 -0.46860599
P 3.77 H 20.0...
Orbital elements:
2012 MA7 Earth MOID = 0.0639 AU
Epoch 2012 Mar. 14.0 TT = JDT 2456000.5 MPC
M 340.67548 (2000.0) P Q
n 0.17715491 Peri. 18.39487 -0.12312341 +0.91149827
a 3.1397899 Node 246.14218 -0.95584899 -0.21524681
e 0.6629246 Incl. 25.41107 -0.26682079 +0.35048496
P 5.56 H 20.5 G...
Orbital elements:
2012 MZ6 PHA, Earth MOID = 0.0147 AU
Epoch 2012 Mar. 14.0 TT = JDT 2456000.5 MPC
M 346.24405 (2000.0) P Q
n 0.31378708 Peri. 224.97365 -0.99908759 +0.03955989
a 2.1447632 Node 317.28582 -0.02936732 -0.90995826
e 0.7125934 Incl. 1.35948 -0.03100894 -0.41280866
P 3.14 H 2...
Frank Scott Hogg (June 26, 1904 - January 1, 1951) was born to Dr. James Scott Hogg and Ida Barberon in Preston, Ontario. After earning and undergraduate degree from the University of Toronto, Hogg received the second doctorate in astronomy awarded at Harvard University in 1929 where he pioneered i...